Theta_e
295 295 295 295 295 296 296 295 296 296 296 297 297 297 297 298 298 299 299 304 307 310 313 316 317 319 320 321 321 323 326 331 334 335 335 336 336 335 334 334 335 335 336
295 295 294 295 294 295 295 295 295 295 295 296 296 297 297 297 297 298 299 299 305 307 309 312 314 316 318 319 320 321 322 323 328 332 334 334 335 335 334 334 334 334 335
296 295 294 294 294 295 295 295 295 294 294 295 294 295 296 296 297 297 297 298 299 303 305 309 311 313 315 317 318 318 319 320 322 326 329 333 334 334 334 334 333 334 334
296 294 294 293 294 294 294 293 293 292 292 292 292 292 293 294 294 295 296 296 297 298 301 305 308 310 311 313 315 317 317 318 319 321 325 328 332 333 334 334 333 333 334
297 294 294 293 294 294 293 292 292 291 290 290 291 292 292 292 292 295 294 295 296 297 298 302 304 305 306 308 311 313 315 317 317 317 321 323 327 331 333 333 333 332 333
296 294 293 293 294 292 291 291 291 291 290 289 291 291 290 291 291 291 291 295 295 296 296 297 297 297 301 304 306 308 310 312 315 317 317 321 323 326 330 332 333 333 332
296 294 293 293 293 291 291 291 290 289 288 289 287 287 288 289 290 290 291 291 292 293 293 294 294 295 295 300 301 304 307 309 311 313 316 318 322 324 325 328 331 332 332
295 294 293 292 292 291 290 289 289 287 288 288 285 284 283 285 289 291 290 290 290 291 292 293 292 293 293 294 296 301 303 306 308 309 311 314 317 321 324 326 328 332 328
295 295 293 292 291 290 289 288 288 287 285 286 287 284 282 281 285 288 289 290 289 289 290 290 291 291 292 292 294 294 297 299 302 305 306 310 314 316 320 322 326 327 330
294 294 293 292 291 290 288 288 289 287 286 284 285 289 287 286 281 282 286 287 290 288 289 289 289 290 290 290 292 294 294 296 298 300 303 306 309 311 315 321 324 325 328
293 293 292 291 290 289 288 287 287 286 286 285 284 284 284 285 288 285 282 285 288 289 289 288 288 288 289 289 289 290 293 294 295 297 299 301 305 308 311 317 321 323 326
291 291 292 290 289 288 287 287 287 286 285 285 285 285 284 284 285 285 284 284 284 286 286 287 286 286 287 287 288 291 292 293 293 295 297 300 303 306 308 311 317 321 324
288 289 289 288 288 288 288 287 286 286 285 284 284 284 286 286 288 288 285 283 282 283 284 285 285 285 286 286 287 289 290 291 292 293 295 298 299 303 305 307 312 319 321
288 289 288 288 288 288 288 287 286 286 285 285 284 284 285 287 289 287 285 283 280 280 282 281 284 285 285 286 287 289 287 289 291 292 294 295 297 299 303 306 312 316 319
289 288 288 287 287 287 287 286 285 285 285 284 284 284 285 288 287 287 286 285 282 277 277 280 280 284 284 285 285 285 286 288 290 292 293 294 296 298 302 305 312 315 318
288 288 287 287 287 287 287 286 284 285 284 283 284 284 286 285 285 285 284 283 283 281 277 281 281 282 283 283 285 285 286 288 289 291 292 294 295 298 303 307 308 314 317
288 287 287 287 286 286 286 285 284 283 282 282 283 286 284 282 283 284 284 284 283 283 278 279 281 282 281 281 283 285 285 286 287 289 291 294 295 297 303 305 306 308 314
287 287 287 286 286 286 285 284 282 282 282 281 285 284 280 282 282 283 284 283 283 282 279 277 279 280 280 282 283 284 287 288 288 290 292 294 295 298 301 302 304 305 306
286 286 286 286 285 285 284 283 282 282 282 283 282 280 279 279 281 282 283 282 283 282 281 279 279 282 282 284 284 286 286 286 288 290 292 293 295 297 298 300 302 302 301
286 285 285 285 285 284 283 282 282 282 282 282 282 280 279 278 280 282 282 283 283 282 282 281 281 281 283 285 286 284 285 285 285 287 287 288 290 292 295 298 299 297 299
285 285 284 284 284 282 282 281 281 282 282 281 280 280 279 279 281 282 283 285 284 283 282 282 282 281 283 284 284 285 285 285 285 284 285 285 286 288 289 293 294 296 299
284 284 284 283 282 282 285 286 285 281 282 280 276 276 277 278 279 282 284 287 288 285 283 283 282 281 282 284 285 285 284 280 280 283 282 279 281 280 280 289 296 297 300
284 283 282 280 278 278 285 286 287 281 277 272 273 273 274 277 277 279 283 286 286 287 287 284 281 281 280 283 283 284 281 279 277 278 281 276 278 275 278 280 295 298 300
283 282 279 277 273 274 284 286 287 275 270 269 267 268 270 271 275 280 283 279 284 284 282 283 282 281 282 283 284 283 279 277 278 279 279 274 277 275 277 278 286 299 300
277 278 275 275 273 274 284 286 284 271 270 270 268 266 269 272 280 283 283 278 279 276 281 282 282 282 281 282 283 281 274 271 272 276 278 277 276 276 275 274 277 291 295
282 282 277 275 275 275 282 286 284 272 268 267 265 266 276 275 283 283 282 280 275 272 272 271 270 272 274 275 278 276 275 270 269 274 277 274 273 273 274 275 274 279 285
Wind_Speed
2 1 2 2 2 3 4 4 4 4 5 5 6 6 7 7 7 5 4 14 18 19 20 21 21 22 23 24 25 26 28 25 23 25 26 27 27 27 27 26 25 23 22
3 2 2 2 3 3 3 3 4 4 4 4 6 6 6 7 8 7 6 7 17 18 19 21 21 22 22 23 25 26 27 27 26 23 26 27 28 29 29 29 27 26 25
4 3 2 2 2 2 3 3 3 3 4 4 5 7 6 7 7 7 7 5 7 13 16 18 20 22 22 23 24 25 26 27 28 26 24 28 29 30 31 31 30 29 28
5 4 2 2 2 2 1 2 2 3 3 4 6 6 6 7 8 7 6 5 4 5 8 15 19 21 22 23 24 25 26 27 28 28 27 25 29 31 31 32 32 31 29
4 4 3 1 2 1 1 2 2 2 3 4 7 7 7 7 7 6 6 5 6 5 4 11 18 19 19 23 24 25 26 27 28 29 27 27 26 29 32 33 34 34 32
5 4 3 2 2 2 2 3 2 1 2 4 7 8 8 6 5 5 5 5 5 5 5 6 5 5 16 20 24 27 27 28 30 29 29 28 28 25 28 30 33 31 33
6 4 4 2 2 2 1 2 2 4 2 5 4 4 4 6 5 4 4 5 6 5 5 5 4 5 8 22 24 25 26 28 28 29 31 31 28 28 26 28 29 28 42
6 5 5 3 3 2 2 3 4 2 2 4 3 2 6 6 3 11 7 4 6 3 4 6 9 11 10 9 11 24 29 28 27 29 30 30 30 30 28 28 29 34 30
6 5 5 5 4 2 1 2 1 3 2 2 3 0 5 4 11 1 7 3 0 3 5 5 9 12 11 10 15 17 25 30 31 30 31 31 29 29 32 30 28 32 34
6 6 6 5 4 3 3 2 3 2 2 1 2 1 2 3 4 12 4 0 11 4 9 6 9 11 12 10 16 19 27 28 29 30 28 30 30 30 30 32 29 30 33
5 6 6 5 5 3 3 3 3 3 2 2 3 2 2 4 8 7 16 14 11 8 8 11 12 11 11 11 11 15 25 30 30 28 29 30 29 28 28 30 32 30 33
4 5 6 5 5 4 4 3 3 4 4 4 3 3 4 3 4 7 11 18 20 16 12 10 10 10 10 11 16 21 25 29 30 31 28 29 28 27 27 27 29 32 29
4 6 6 5 4 4 4 4 4 4 4 3 4 3 4 6 8 8 10 15 17 14 12 10 7 8 9 9 12 21 22 30 30 31 30 28 28 27 27 28 29 30 25
5 6 6 6 6 5 5 5 3 3 4 3 4 4 4 6 6 7 9 12 18 15 12 18 9 9 8 9 14 24 16 27 28 30 30 29 27 28 29 28 29 26 25
5 6 7 6 6 6 5 5 3 4 3 3 4 4 5 5 6 7 7 9 11 18 15 14 10 11 10 10 15 16 16 22 28 29 29 30 27 28 29 29 20 25 24
7 7 7 6 6 6 5 4 3 3 2 2 3 5 6 4 5 6 7 8 9 11 14 13 13 14 12 12 16 17 16 24 26 29 27 26 27 27 28 23 19 18 21
7 7 7 6 6 6 5 4 3 3 3 4 5 6 4 6 6 6 6 8 9 9 11 17 12 12 16 16 16 15 14 13 12 25 26 24 25 27 20 15 12 14 17
6 7 6 6 6 6 5 5 4 4 4 5 5 4 6 5 8 7 7 10 10 10 11 17 16 13 15 18 17 18 14 12 11 19 20 22 22 27 14 10 7 11 12
7 7 7 7 6 6 5 5 5 5 5 5 3 5 6 5 8 7 8 9 8 9 10 11 15 12 14 14 15 14 14 13 9 15 17 16 20 14 13 9 3 11 11
8 7 7 7 6 6 5 5 5 5 5 3 5 5 5 5 8 9 9 11 10 10 9 9 11 13 12 15 10 10 10 3 4 3 3 5 9 9 10 7 5 6 10
8 8 7 6 6 5 4 6 4 5 5 5 5 5 5 6 15 13 9 10 9 9 8 8 10 11 12 14 12 8 8 6 2 6 3 4 4 5 8 9 6 6 8
8 8 8 7 7 5 10 10 7 5 5 4 5 4 5 7 9 16 17 20 15 9 10 8 7 11 13 13 9 9 6 4 4 5 5 7 9 7 9 9 18 10 11
8 9 7 7 7 5 11 11 12 4 4 4 5 4 4 5 8 9 15 17 14 12 9 7 8 9 12 13 11 9 4 3 3 6 4 4 8 8 9 9 24 5 8
11 8 8 7 5 6 13 14 13 4 4 4 5 4 4 6 7 9 11 8 8 4 4 6 6 8 9 12 9 5 3 2 1 4 6 3 5 7 9 12 34 8 5
6 6 5 7 8 6 14 13 9 4 4 6 4 3 4 5 12 16 10 7 8 4 6 10 11 12 14 18 17 6 4 3 3 3 8 2 4 3 8 14 13 31 26
8 7 7 7 8 7 12 13 9 3 4 3 4 4 6 4 14 13 8 7 7 5 6 6 6 8 10 12 18 9 6 2 2 2 4 3 5 4 4 10 13 13 14
Wind_Direction
126 98 66 55 21 10 7 355 352 352 344 338 322 316 311 310 299 296 288 292 301 304 306 305 302 300 297 294 291 288 288 287 273 254 246 237 229 229 227 224 220 225 226
140 110 79 46 37 12 358 344 344 350 335 328 319 312 304 292 288 290 287 293 299 305 309 309 310 307 303 299 295 292 288 285 283 276 253 246 237 229 226 224 221 218 222
150 134 104 61 37 9 354 355 349 339 348 322 311 304 297 287 287 288 287 287 289 296 308 312 312 311 309 307 303 297 292 288 285 283 278 254 244 237 229 224 222 221 219
160 136 109 60 38 24 14 338 355 339 353 326 319 304 300 288 287 285 279 275 280 290 299 306 311 312 312 312 308 302 296 291 285 280 280 282 254 241 234 231 223 220 218
158 125 110 120 89 44 12 348 352 33 329 328 315 309 289 286 289 292 283 286 279 283 293 305 310 309 313 312 311 310 306 298 288 282 277 274 274 261 241 233 228 220 217
160 136 120 140 96 68 1 9 359 348 311 318 307 299 289 278 275 271 282 290 289 288 290 297 299 306 312 317 313 308 305 305 304 291 278 272 272 268 256 247 232 237 216
166 152 142 150 113 89 4 13 1 25 353 327 332 296 303 281 288 280 264 261 274 281 307 312 308 310 306 310 310 307 303 301 294 294 294 281 269 269 267 257 238 238 226
175 163 164 157 134 150 56 44 44 4 9 16 5 292 334 326 342 291 279 254 253 295 317 300 303 305 308 299 297 302 304 300 300 292 295 296 298 278 261 251 250 239 255
181 165 176 155 155 164 136 106 85 60 10 338 29 94 339 316 324 287 287 280 157 327 310 307 299 295 296 297 298 301 297 300 293 292 291 292 294 300 275 260 247 247 227
181 175 175 162 162 169 168 160 147 148 141 281 354 221 206 240 331 319 318 185 294 319 305 301 298 295 292 288 289 291 297 295 295 290 288 289 290 292 296 271 254 244 239
186 178 170 164 169 174 182 179 169 181 185 191 181 237 251 235 236 257 298 303 294 305 316 312 301 296 294 292 289 289 291 296 292 295 289 287 287 286 290 288 266 249 234
185 184 171 165 171 177 190 197 197 204 212 219 213 215 215 250 273 269 282 293 297 312 313 295 292 287 281 280 284 283 288 293 296 292 292 291 283 282 287 288 282 253 243
188 197 175 169 170 190 199 201 206 223 228 214 210 219 228 253 266 271 285 290 295 302 307 294 290 284 279 276 280 283 285 291 294 293 284 286 295 295 285 282 286 258 250
185 174 178 171 176 191 205 209 213 233 224 232 245 232 254 266 268 279 282 294 297 296 305 300 309 294 295 288 280 287 286 285 287 290 289 288 286 285 288 281 276 262 247
179 172 177 172 181 194 206 209 222 245 232 242 250 243 255 266 276 279 282 282 291 306 311 312 313 305 294 292 286 283 280 279 281 284 284 285 279 281 283 277 281 259 241
178 169 177 177 183 197 206 208 230 247 258 258 260 253 279 268 280 280 272 274 271 278 293 303 304 304 300 296 289 286 280 275 275 276 278 276 282 282 279 271 281 274 240
179 178 181 178 185 196 205 212 235 254 244 268 259 274 277 276 275 275 274 269 274 273 285 295 295 300 301 294 292 288 281 273 266 267 274 273 280 284 275 258 275 299 254
179 178 180 181 187 197 204 211 231 240 254 262 285 293 275 287 283 282 276 278 279 282 277 288 298 307 303 302 290 289 289 277 265 270 275 279 282 277 267 257 298 304 300
176 180 179 187 193 198 203 214 223 238 258 260 298 278 275 285 288 287 279 282 282 290 280 287 296 299 295 301 301 291 289 281 268 270 275 292 282 286 273 276 245 278 293
172 180 187 190 192 196 203 210 214 242 263 269 272 261 274 277 281 293 287 277 295 296 289 287 288 297 301 307 298 300 317 308 319 307 315 329 309 308 302 295 309 316 287
180 178 179 190 191 197 204 206 206 238 243 272 266 275 281 284 288 286 289 298 283 283 287 293 303 306 311 320 316 317 308 307 308 3 342 8 336 8 6 353 314 304 296
179 176 186 186 190 204 212 214 211 219 226 256 273 269 286 293 291 310 301 299 299 289 302 305 320 311 313 316 313 308 311 326 338 32 331 15 10 15 357 359 340 297 265
173 185 185 179 199 201 209 216 225 214 200 238 247 283 294 300 300 293 292 305 298 303 315 316 313 318 313 325 317 310 345 6 1 338 326 20 7 13 355 343 354 268 254
183 183 184 188 184 216 213 215 224 205 208 236 233 240 257 291 285 293 295 300 294 278 311 328 323 322 324 328 327 321 312 319 287 6 359 54 356 20 4 7 3 356 241
168 172 173 185 197 220 213 215 214 184 219 250 241 262 243 274 296 309 306 296 294 286 335 358 346 347 358 350 0 332 340 15 349 1 11 23 4 13 36 21 357 33 43
180 172 191 200 198 214 214 213 210 172 211 246 273 272 286 283 304 317 305 302 306 301 332 354 345 346 7 1 10 8 334 336 323 18 10 64 348 341 42 13 13 20 35